period_start,C,m1,H,J0,J1,J2,J3,J4,J5,JA,JB,JC,JD,JJ,JK,JN,#
2018-03-05 00:00:37,0.31,4.37,0.00,21.28,25.09,28.29,14.11,48.19,1025.46,2031.97,2115.24,2096.88,2400.55,599.65,604.47,16.18,0000 0000 0000 0000 000000
2018-03-05 00:05:38,0.29,4.38,0.00,21.28,25.07,28.26,14.18,48.19,1025.46,2031.99,2111.94,2094.42,2397.77,600.06,604.80,16.23,0000 0000 0000 0000 000000
2018-03-05 00:10:40,0.30,4.40,0.00,21.27,25.06,28.25,14.22,48.26,1025.41,2031.99,2108.76,2091.95,2394.93,600.09,604.74,16.28,0000 0000 0000 0000 000000
2018-03-05 00:15:41,0.29,4.41,0.00,21.28,25.05,28.24,14.15,48.24,1025.41,2031.99,2105.48,2089.45,2392.10,600.02,604.73,16.33,0000 0000 0000 0000 000000
2018-03-05 00:20:42,0.29,4.42,0.00,21.25,25.04,28.24,14.15,48.24,1025.41,2031.99,2102.43,2087.10,2389.28,599.86,604.67,16.38,0000 0000 0000 0000 000000
2018-03-05 00:25:44,0.29,4.44,0.00,21.25,25.02,28.24,14.12,48.26,1025.41,2032.00,2099.12,2084.63,2386.41,599.75,604.52,16.43,0000 0000 0000 0000 000000
2018-03-05 00:30:46,0.30,4.46,0.00,21.25,25.02,28.21,14.19,48.38,1025.41,2032.00,2095.88,2082.19,2383.53,600.06,604.83,16.48,0000 0000 0000 0000 000000
2018-03-05 00:35:47,0.30,4.47,0.00,21.25,25.00,28.23,14.18,48.27,1025.41,2032.00,2092.62,2079.70,2380.68,600.20,604.81,16.53,0000 0000 0000 0000 000000
2018-03-05 00:40:48,0.31,4.49,0.00,21.26,25.00,28.22,14.23,48.28,1025.42,2032.00,2089.28,2077.21,2377.82,600.30,604.96,16.58,0000 0000 0000 0000 000000
2018-03-05 00:45:50,0.31,4.50,0.00,21.26,24.99,28.19,14.19,48.36,1025.43,2032.00,2085.95,2074.71,2374.99,600.13,604.72,16.63,0000 0000 0000 0000 000000
2018-03-05 00:50:51,0.30,4.52,0.00,21.27,24.97,28.19,14.19,48.46,1025.51,2032.00,2082.61,2072.22,2372.15,599.66,604.39,16.68,0000 0000 0000 0000 000000
2018-03-05 00:55:53,0.29,4.53,0.00,21.28,24.97,28.19,14.20,48.44,1025.44,2032.02,2079.46,2069.80,2369.36,599.97,604.71,16.73,0000 0000 0000 0000 000000
2018-03-05 01:00:54,0.30,4.55,0.00,21.28,24.97,28.17,14.22,48.45,1025.42,2032.02,2076.18,2067.36,2366.60,600.33,604.97,16.78,0000 0000 0000 0000 000000
2018-03-05 01:05:55,0.30,4.56,0.00,21.30,24.97,28.18,14.22,48.41,1025.42,2032.02,2072.88,2064.97,2363.93,599.69,604.24,16.83,0000 0000 0000 0000 000000
2018-03-05 01:10:57,0.30,4.58,0.00,21.32,24.97,28.16,14.19,48.48,1025.42,2032.11,2069.80,2062.63,2361.28,600.14,604.78,16.88,0000 0000 0000 0000 000000
2018-03-05 01:15:58,0.31,4.59,0.00,21.32,24.97,28.18,14.15,48.52,1025.41,2032.22,2066.64,2060.27,2358.60,599.91,604.76,16.93,0000 0000 0000 0000 000000
2018-03-05 01:20:59,0.31,4.61,0.00,21.35,24.96,28.16,14.19,48.60,1025.41,2032.38,2063.52,2057.91,2355.90,599.78,604.25,16.98,0000 0000 0000 0000 000000
2018-03-05 01:26:01,0.29,4.62,0.00,21.35,24.97,28.15,14.17,48.52,1025.41,2032.35,2060.48,2055.54,2353.10,600.06,604.67,17.03,0000 0000 0000 0000 000000
2018-03-05 01:31:02,0.27,4.64,0.00,21.35,24.97,28.16,14.16,48.40,1025.41,2032.19,2057.45,2053.18,2350.30,599.90,604.41,17.08,0000 0000 0000 0000 000000
2018-03-05 01:36:03,0.29,4.65,0.00,21.38,24.97,28.15,14.13,48.50,1025.41,2032.13,2054.33,2050.78,2347.56,599.88,604.34,17.13,0000 0000 0000 0000 000000
2018-03-05 01:41:05,0.30,4.67,0.00,21.40,24.97,28.18,14.16,48.57,1025.41,2032.06,2051.18,2048.35,2344.86,599.67,604.13,17.18,0000 0000 0000 0000 000000
2018-03-05 01:46:06,0.29,4.68,0.00,21.43,24.97,28.17,14.21,48.59,1025.39,2032.03,2047.99,2046.17,2342.10,599.77,604.10,17.23,0000 0000 0000 0000 000000
2018-03-05 01:51:07,0.29,4.70,0.00,21.44,24.97,28.17,14.10,48.54,1025.39,2032.02,2045.13,2043.88,2339.27,599.84,604.28,17.28,0000 0000 0000 0000 000000
2018-03-05 01:56:08,0.29,4.71,0.00,21.45,24.99,28.17,14.19,48.49,1025.40,2032.03,2042.08,2041.48,2336.50,599.95,604.36,17.33,0000 0000 0000 0000 000000
2018-03-05 02:01:09,0.30,4.73,0.00,21.47,25.00,28.19,14.16,48.49,1025.40,2032.01,2038.99,2039.13,2333.67,599.94,604.18,17.38,0000 0000 0000 0000 000000
2018-03-05 02:06:11,0.30,4.74,0.00,21.49,25.00,28.19,14.14,48.49,1025.40,2032.00,2035.81,2036.69,2330.88,599.60,603.90,17.43,0000 0000 0000 0000 000000
2018-03-05 02:11:12,0.30,4.76,0.00,21.52,25.02,28.21,14.16,48.48,1025.40,2032.00,2032.69,2034.30,2328.16,600.01,604.26,17.48,0000 0000 0000 0000 000000
2018-03-05 02:16:13,0.30,4.78,0.00,21.53,25.02,28.23,14.16,48.63,1025.40,2032.00,2029.52,2031.93,2325.34,600.03,604.20,17.54,0000 0000 0000 0000 000000
2018-03-05 02:21:15,0.31,4.79,0.00,21.55,25.02,28.23,14.21,48.59,1025.40,2032.00,2026.35,2029.48,2322.57,600.24,604.37,17.59,0000 0000 0000 0000 000000
2018-03-05 02:26:16,0.29,4.81,0.00,21.56,25.04,28.21,14.18,48.46,1025.41,2032.00,2023.48,2027.21,2319.86,599.60,603.79,17.64,0000 0000 0000 0000 000000
2018-03-05 02:31:18,0.30,4.82,0.00,21.58,25.05,28.23,14.15,48.60,1025.41,2032.00,2020.41,2024.88,2317.17,599.67,603.77,17.69,0000 0000 0000 0000 000000
2018-03-05 02:36:19,0.30,4.84,0.00,21.59,25.05,28.27,14.19,48.49,1025.41,2032.00,2017.39,2022.50,2314.37,600.07,604.08,17.74,0000 0000 0000 0000 000000
2018-03-05 02:41:20,0.30,4.85,0.00,21.61,25.06,28.24,14.10,48.40,1025.41,2031.99,2014.43,2020.20,2311.64,599.82,604.03,17.79,0000 0000 0000 0000 000000
2018-03-05 02:46:21,0.30,4.87,0.00,21.63,25.07,28.26,14.16,48.56,1025.41,2031.98,2011.27,2017.85,2308.94,599.97,603.99,17.84,0000 0000 0000 0000 000000
2018-03-05 02:51:22,0.29,4.88,0.00,21.64,25.07,28.28,14.10,48.45,1025.41,2031.98,2008.15,2015.55,2306.30,599.56,603.47,17.89,0000 0000 0000 0000 000000
2018-03-05 02:56:23,0.30,4.90,0.00,21.65,25.07,28.27,14.12,48.46,1025.41,2031.97,2005.06,2013.18,2303.64,600.04,604.07,17.94,0000 0000 0000 0000 000000
2018-03-05 03:01:24,0.30,4.91,0.00,21.67,25.08,28.28,14.15,48.43,1025.41,2031.98,2001.95,2010.86,2301.11,600.01,603.93,17.99,0000 0000 0000 0000 000000
2018-03-05 03:06:25,0.29,4.93,0.00,21.68,25.10,28.30,14.13,48.48,1025.41,2031.98,1998.99,2008.56,2298.40,600.12,604.06,18.04,0000 0000 0000 0000 000000
2018-03-05 03:11:27,0.29,4.94,0.00,21.69,25.10,28.29,14.13,48.53,1025.41,2031.94,1996.05,2006.26,2295.74,599.88,603.74,18.09,0000 0000 0000 0000 000000
2018-03-05 03:16:28,0.30,4.96,0.00,21.72,25.10,28.31,14.15,48.34,1025.40,2031.95,1993.08,2004.02,2293.10,600.18,603.98,18.14,0000 0000 0000 0000 000000
2018-03-05 03:21:30,0.28,4.97,0.00,21.73,25.12,28.31,14.15,48.41,1025.40,2031.90,1990.15,2001.73,2290.44,599.84,603.57,18.19,0000 0000 0000 0000 000000
2018-03-05 03:26:31,0.26,4.99,0.00,21.75,25.12,28.33,14.16,48.31,1025.40,2031.69,1987.19,1999.46,2287.80,600.28,604.02,18.24,0000 0000 0000 0000 000000
2018-03-05 03:31:32,0.31,5.00,0.00,21.75,25.12,28.34,14.20,48.41,1025.40,2031.57,1984.26,1997.22,2285.14,599.92,603.64,18.29,0000 0000 0000 0000 000000
2018-03-05 03:36:33,0.26,5.01,0.00,21.75,25.13,28.36,14.20,48.30,1025.40,2031.39,1981.32,1994.88,2282.44,600.31,603.98,18.34,0000 0000 0000 0000 000000
2018-03-05 03:41:35,0.28,5.03,0.00,21.76,25.15,28.37,14.11,48.17,1025.41,2031.13,1978.23,1992.56,2279.83,600.10,603.82,18.39,0000 0000 0000 0000 000000
2018-03-05 03:46:36,0.29,5.04,0.00,21.78,25.15,28.37,14.06,48.25,1025.41,2031.06,1975.25,1990.38,2277.30,599.80,603.33,18.44,0000 0000 0000 0000 000000
2018-03-05 03:51:38,0.29,5.06,0.00,21.79,25.15,28.39,14.19,48.27,1025.41,2031.02,1972.29,1988.15,2274.75,600.32,604.01,18.49,0000 0000 0000 0000 000000
2018-03-05 03:56:39,0.27,5.07,0.00,21.80,25.15,28.40,14.17,48.20,1025.41,2031.01,1969.44,1986.04,2272.23,600.30,604.05,18.54,0000 0000 0000 0000 000000
2018-03-05 04:01:41,0.27,5.09,0.00,21.84,25.17,28.40,14.11,48.17,1025.40,2031.01,1966.67,1984.01,2269.81,600.18,603.75,18.59,0000 0000 0000 0000 000000
2018-03-05 04:06:42,0.26,5.10,0.00,21.84,25.17,28.42,14.05,48.24,1025.40,2031.01,1963.98,1982.13,2267.46,599.75,603.23,18.64,0000 0000 0000 0000 000000
2018-03-05 04:11:43,0.27,5.11,0.00,21.86,25.17,28.42,14.08,48.26,1025.40,2031.01,1961.26,1980.09,2265.12,599.72,603.26,18.69,0000 0000 0000 0000 000000
2018-03-05 04:16:44,0.26,5.13,0.00,21.88,25.17,28.43,14.10,48.31,1025.40,2031.00,1958.58,1978.15,2262.89,599.74,603.17,18.74,0000 0000 0000 0000 000000
2018-03-05 04:21:46,0.25,5.14,0.00,21.89,25.18,28.46,14.12,48.38,1025.40,2031.00,1955.99,1976.27,2260.69,600.08,603.61,18.79,0000 0000 0000 0000 000000
2018-03-05 04:26:47,0.25,5.15,0.00,21.88,25.19,28.45,14.17,48.37,1025.40,2031.00,1953.33,1974.39,2258.58,600.18,603.64,18.84,0000 0000 0000 0000 000000
2018-03-05 04:31:48,0.23,5.16,0.00,21.89,25.20,28.46,14.15,48.56,1025.40,2031.00,1951.11,1972.68,2256.73,600.25,603.59,18.89,0000 0000 0000 0000 000000
2018-03-05 04:36:50,0.16,5.17,0.00,21.89,25.20,28.47,14.13,48.42,1025.36,2031.00,1949.30,1971.42,2255.22,599.55,603.05,18.94,0000 0000 0000 0000 000000
2018-03-05 04:41:51,0.17,5.18,0.00,21.88,25.20,28.47,14.22,48.48,1025.37,2031.00,1947.60,1970.19,2253.69,600.40,603.94,18.99,0000 0000 0000 0000 000000
2018-03-05 04:46:52,0.15,5.19,0.00,21.89,25.20,28.47,14.16,48.39,1025.39,2031.00,1945.94,1968.95,2252.38,600.01,603.46,19.04,0000 0000 0000 0000 000000
2018-03-05 04:51:53,0.19,5.20,0.00,21.89,25.20,28.49,14.13,48.35,1025.33,2031.00,1944.13,1967.69,2250.81,599.97,603.28,19.09,0000 0000 0000 0000 000000
2018-03-05 04:56:54,0.21,5.21,0.00,21.91,25.20,28.49,14.08,48.35,1025.40,2031.00,1941.95,1966.14,2249.12,599.46,602.77,19.14,0000 0000 0000 0000 000000
2018-03-05 05:01:55,0.18,5.22,0.00,21.92,25.20,28.50,14.18,48.32,1025.40,2031.00,1940.13,1964.82,2247.60,600.37,603.76,19.19,0000 0000 0000 0000 000000
2018-03-05 05:06:57,0.16,5.23,0.00,21.93,25.20,28.50,14.05,48.32,1025.40,2031.00,1938.55,1963.72,2246.34,600.00,603.28,19.24,0000 0000 0000 0000 000000
2018-03-05 05:11:58,0.21,5.24,0.00,21.95,25.21,28.52,14.14,48.30,1025.39,2031.00,1936.41,1962.33,2244.65,600.00,603.20,19.29,0000 0000 0000 0000 000000
2018-03-05 05:16:59,0.21,5.25,0.00,21.96,25.22,28.52,14.17,48.16,1025.40,2031.00,1934.15,1960.81,2242.93,600.25,603.51,19.34,0000 0000 0000 0000 000000
2018-03-05 05:22:01,0.19,5.26,0.00,21.95,25.22,28.51,14.17,48.19,1025.33,2031.00,1932.21,1959.53,2241.49,599.88,603.24,19.39,0000 0000 0000 0000 000000
2018-03-05 05:27:02,0.28,5.27,0.00,21.95,25.22,28.54,14.15,48.23,1025.38,2031.00,1929.41,1957.61,2239.42,600.26,603.59,19.44,0000 0000 0000 0000 000000
2018-03-05 05:32:04,0.30,5.29,0.00,21.95,25.22,28.55,14.13,48.24,1025.39,2031.00,1926.16,1955.44,2237.00,599.83,603.20,19.49,0000 0000 0000 0000 000000
2018-03-05 05:37:05,0.24,5.30,0.00,21.94,25.22,28.55,14.14,48.16,1025.39,2031.00,1923.63,1953.71,2235.11,600.26,603.70,19.54,0000 0000 0000 0000 000000
2018-03-05 05:42:07,0.19,5.31,0.00,21.93,25.23,28.56,14.14,48.19,1025.39,2031.00,1921.40,1952.37,2233.51,600.04,603.39,19.59,0000 0000 0000 0000 000000
2018-03-05 05:47:08,0.16,5.32,0.00,21.94,25.24,28.58,14.12,48.17,1025.40,2030.98,1919.48,1951.07,2232.06,599.95,603.15,19.64,0000 0000 0000 0000 000000
2018-03-05 05:52:09,0.12,5.33,0.00,21.91,25.25,28.60,14.18,48.27,1025.40,2030.98,1918.17,1950.05,2230.95,600.23,603.54,19.69,0000 0000 0000 0000 000000
2018-03-05 05:57:10,0.15,5.33,0.00,21.85,25.25,28.58,14.16,48.32,1025.40,2030.99,1916.65,1949.14,2229.87,600.53,603.97,19.74,0000 0000 0000 0000 000000
2018-03-05 06:02:11,0.13,5.34,0.00,21.78,25.25,28.57,14.11,48.22,1025.40,2030.99,1915.31,1948.19,2228.77,599.90,603.61,19.79,0000 0000 0000 0000 000000
2018-03-05 06:07:12,0.25,5.35,0.00,21.70,25.25,28.54,14.16,48.38,1025.40,2030.99,1912.86,1946.94,2227.32,600.11,603.92,19.84,0000 0000 0000 0000 000000
2018-03-05 06:12:13,0.89,5.38,0.00,21.64,25.25,28.53,14.15,48.30,1025.41,2030.99,1902.97,1942.60,2222.49,600.17,604.13,19.89,0000 0000 0000 0000 000000
2018-03-05 06:17:15,0.98,5.43,0.00,21.55,25.24,28.51,14.11,48.35,1025.42,2030.99,1890.65,1937.30,2216.53,599.70,603.82,19.94,0000 0000 0000 0000 000000
2018-03-05 06:22:16,0.71,5.47,0.00,21.48,25.22,28.46,14.18,48.38,1025.44,2030.99,1880.74,1933.00,2211.70,599.95,604.25,19.99,0000 0000 0000 0000 000000
2018-03-05 06:27:17,0.70,5.51,0.03,21.40,25.22,28.47,14.18,48.28,1025.43,2030.99,1871.92,1929.13,2207.34,599.99,604.56,20.04,0000 0000 0000 0000 000000
2018-03-05 06:32:18,0.73,5.54,1.00,21.32,25.20,28.42,14.20,48.36,1025.51,2030.99,1862.76,1925.25,2202.93,599.72,604.49,20.09,0000 0000 0000 0000 000000
2018-03-05 06:37:19,0.49,5.58,1.00,21.23,25.18,28.52,14.19,48.38,1025.48,2031.00,1855.61,1922.09,2199.41,599.71,604.56,20.15,0000 0000 0000 0000 000000
2018-03-05 06:42:21,0.17,5.59,1.00,21.14,25.16,28.58,14.22,48.46,1025.47,2031.00,1853.25,1920.77,2197.85,599.74,604.77,20.20,0000 0000 0000 0000 000000
2018-03-05 06:47:22,0.14,5.60,1.00,21.06,25.13,28.59,14.23,48.54,1025.54,2031.01,1851.62,1919.91,2196.74,599.97,605.23,20.25,0000 0000 0000 0000 000000
2018-03-05 06:52:23,0.14,5.60,1.00,20.91,25.09,28.56,14.26,48.50,1025.50,2031.06,1850.14,1919.02,2195.74,600.43,605.98,20.30,0000 0000 0000 0000 000000
2018-03-05 06:57:24,0.17,5.61,0.93,20.71,25.06,28.52,14.29,48.63,1025.45,2031.18,1848.58,1918.04,2194.65,599.72,605.57,20.35,0000 0000 0000 0000 000000
2018-03-05 07:02:26,0.28,5.62,0.00,20.55,25.01,28.44,14.18,48.59,1025.43,2031.66,1846.53,1916.84,2193.36,599.67,605.86,20.40,0000 0000 0000 0000 000000
2018-03-05 07:07:27,0.24,5.64,0.00,20.44,24.96,28.34,14.25,48.60,1025.44,2031.96,1844.10,1915.58,2191.80,600.05,606.37,20.45,0000 0000 0000 0000 000000
2018-03-05 07:12:28,0.16,5.65,0.00,20.35,24.91,28.25,14.24,48.63,1025.42,2031.99,1842.29,1914.49,2190.54,599.93,606.54,20.50,0000 0000 0000 0000 000000
2018-03-05 07:17:29,0.16,5.65,0.00,20.31,24.86,28.17,14.30,48.73,1025.43,2032.00,1840.60,1913.49,2189.43,600.12,606.86,20.55,0000 0000 0000 0000 000000
2018-03-05 07:22:31,0.21,5.66,0.00,20.28,24.80,28.08,14.33,48.77,1025.43,2032.03,1838.48,1912.17,2187.89,600.21,607.02,20.60,0000 0000 0000 0000 000000
2018-03-05 07:27:32,0.28,5.68,0.00,20.24,24.74,28.06,14.26,48.78,1025.43,2032.34,1836.17,1910.76,2186.38,599.82,606.66,20.65,0000 0000 0000 0000 000000
2018-03-05 07:32:33,0.27,5.69,0.00,20.23,24.69,27.97,14.32,48.73,1025.46,2032.91,1833.97,1909.52,2184.88,599.99,606.85,20.70,0000 0000 0000 0000 000000
2018-03-05 07:37:35,0.32,5.70,0.00,20.22,24.63,27.93,14.26,48.71,1025.47,2032.99,1830.66,1907.81,2182.98,600.46,607.39,20.75,0000 0000 0000 0000 000000
2018-03-05 07:42:36,0.55,5.73,0.00,20.22,24.58,27.86,14.30,48.74,1025.49,2032.99,1824.34,1904.83,2179.62,599.98,606.88,20.80,0000 0000 0000 0000 000000
2018-03-05 07:47:37,0.29,5.75,0.00,20.22,24.53,27.84,14.28,48.74,1025.54,2033.03,1820.55,1902.82,2177.36,599.81,606.85,20.85,0000 0000 0000 0000 000000
2018-03-05 07:52:39,0.30,5.76,0.00,20.19,24.48,27.83,14.25,48.67,1025.49,2033.47,1818.15,1901.47,2175.71,599.74,606.79,20.90,0000 0000 0000 0000 000000
2018-03-05 07:57:40,0.23,5.78,0.00,20.19,24.43,27.80,14.22,48.52,1025.46,2033.90,1816.06,1900.11,2174.41,600.23,607.20,20.95,0000 0000 0000 0000 000000
2018-03-05 08:02:41,0.30,5.79,0.00,20.17,24.39,27.73,14.30,48.78,1025.42,2033.98,1813.44,1898.39,2172.41,599.97,607.01,21.00,0000 0000 0000 0000 000000
2018-03-05 08:07:43,0.28,5.81,0.00,20.16,24.35,27.70,14.25,48.82,1025.46,2033.99,1810.69,1896.56,2170.34,600.14,607.19,21.05,0000 0000 0000 0000 000000
2018-03-05 08:12:44,0.25,5.82,0.00,20.15,24.31,27.69,14.31,48.80,1025.47,2034.02,1808.33,1894.90,2168.52,600.11,607.12,21.10,0000 0000 0000 0000 000000
2018-03-05 08:17:45,0.27,5.83,0.00,20.14,24.26,27.65,14.27,48.78,1025.48,2034.06,1805.77,1893.19,2166.52,599.74,606.83,21.15,0000 0000 0000 0000 000000
2018-03-05 08:22:46,0.36,5.85,0.00,20.12,24.23,27.63,14.28,48.73,1025.43,2034.58,1803.07,1891.33,2164.43,599.89,606.91,21.20,0000 0000 0000 0000 000000
2018-03-05 08:27:47,0.16,5.86,0.00,20.12,24.19,27.63,14.25,48.70,1025.44,2034.91,1801.56,1890.10,2163.02,599.88,607.03,21.25,0000 0000 0000 0000 000000
2018-03-05 08:32:49,0.13,5.87,0.00,20.10,24.16,27.59,14.28,48.72,1025.44,2034.96,1800.43,1889.24,2162.05,600.02,607.17,21.30,0000 0000 0000 0000 000000
2018-03-05 08:37:51,0.13,5.88,0.00,20.08,24.12,27.54,14.17,48.77,1025.43,2034.98,1799.25,1888.38,2161.07,599.62,606.84,21.35,0000 0000 0000 0000 000000
2018-03-05 08:42:52,0.13,5.88,0.00,20.06,24.08,27.45,14.27,48.82,1025.43,2034.99,1797.99,1887.55,2160.08,600.12,607.39,21.40,0000 0000 0000 0000 000000
2018-03-05 08:47:53,0.14,5.89,0.00,20.04,24.05,27.48,14.25,48.82,1025.43,2034.99,1796.80,1886.59,2159.07,600.29,607.52,21.45,0000 0000 0000 0000 000000
2018-03-05 08:52:54,0.13,5.90,0.00,20.02,24.01,27.48,14.26,48.85,1025.52,2035.03,1795.65,1885.74,2158.03,599.92,607.29,21.50,0000 0000 0000 0000 000000
2018-03-05 08:57:56,0.18,5.90,0.00,19.99,23.98,27.43,14.27,48.84,1025.61,2035.21,1794.21,1884.73,2156.93,600.05,607.55,21.55,0000 0000 0000 0000 000000
2018-03-05 09:02:57,0.21,5.92,0.00,19.97,23.95,27.41,14.27,48.92,1025.76,2035.77,1792.78,1883.81,2155.86,599.90,607.46,21.60,0000 0000 0000 0000 000000
2018-03-05 09:07:59,0.22,5.93,0.00,19.94,23.92,27.42,14.30,48.79,1025.81,2035.95,1791.21,1882.58,2154.49,600.18,607.81,21.65,0000 0000 0000 0000 000000
2018-03-05 09:13:00,0.21,5.94,0.00,19.92,23.89,27.33,14.25,48.98,1025.79,2035.99,1789.20,1881.11,2152.76,599.41,607.13,21.70,0000 0000 0000 0000 000000
2018-03-05 09:18:01,0.16,5.95,0.00,19.89,23.86,27.37,14.24,49.02,1025.75,2035.99,1787.67,1880.01,2151.59,599.58,607.35,21.75,0000 0000 0000 0000 000000
2018-03-05 09:23:03,0.14,5.96,0.00,19.87,23.83,27.33,14.20,48.88,1025.79,2036.01,1786.28,1879.06,2150.39,599.62,607.43,21.80,0000 0000 0000 0000 000000
2018-03-05 09:28:04,0.13,5.96,0.00,19.84,23.80,27.23,14.30,49.03,1025.74,2036.01,1785.22,1878.14,2149.35,600.29,608.09,21.85,0000 0000 0000 0000 000000
2018-03-05 09:33:05,0.13,5.97,0.00,19.83,23.77,27.23,14.25,48.98,1025.69,2036.06,1784.14,1877.33,2148.46,599.77,607.63,21.90,0000 0000 0000 0000 000000
2018-03-05 09:38:07,0.11,5.97,0.00,19.81,23.74,27.20,14.37,49.07,1025.52,2036.14,1783.12,1876.63,2147.56,600.47,608.14,21.95,0000 0000 0000 0000 000000
2018-03-05 09:43:08,0.16,5.98,0.00,19.78,23.71,27.18,14.32,48.92,1025.67,2036.63,1782.08,1875.96,2146.75,600.09,608.15,22.00,0000 0000 0000 0000 000000
2018-03-05 09:48:09,0.14,5.99,0.00,19.74,23.68,27.14,14.26,48.96,1025.67,2036.92,1781.04,1875.10,2145.89,599.90,608.05,22.05,0000 0000 0000 0000 000000
2018-03-05 09:53:10,0.12,6.00,0.00,19.72,23.66,27.14,14.29,49.07,1025.67,2036.98,1779.99,1874.37,2144.95,599.58,607.69,22.10,0000 0000 0000 0000 000000
2018-03-05 09:58:11,0.15,6.00,0.00,19.69,23.62,27.12,14.23,48.91,1025.50,2036.99,1778.82,1873.49,2143.91,599.77,607.84,22.15,0000 0000 0000 0000 000000
2018-03-05 10:03:12,0.15,6.01,0.00,19.67,23.59,27.11,14.30,48.93,1025.50,2036.99,1777.58,1872.54,2142.79,599.97,607.99,22.20,0000 0000 0000 0000 000000
2018-03-05 10:08:14,0.15,6.02,0.00,19.65,23.56,27.04,14.26,48.95,1025.49,2037.00,1776.30,1871.54,2141.62,600.17,608.29,22.25,0000 0000 0000 0000 000000
2018-03-05 10:13:15,0.16,6.03,0.00,19.62,23.54,27.02,14.34,48.98,1025.47,2037.03,1774.93,1870.51,2140.49,599.95,608.16,22.30,0000 0000 0000 0000 000000
2018-03-05 10:18:17,0.16,6.04,0.00,19.58,23.51,27.01,14.30,48.92,1025.50,2037.09,1773.56,1869.46,2139.31,600.06,608.42,22.35,0000 0000 0000 0000 000000
2018-03-05 10:23:18,0.23,6.05,0.00,19.55,23.48,26.95,14.29,48.80,1025.51,2037.62,1772.22,1868.44,2138.10,599.82,608.09,22.40,0000 0000 0000 0000 000000
2018-03-05 10:28:19,0.17,6.06,0.00,19.54,23.45,26.94,14.29,48.94,1025.63,2037.90,1770.89,1867.41,2136.94,599.77,608.18,22.45,0000 0000 0000 0000 000000
2018-03-05 10:33:21,0.17,6.06,0.00,19.49,23.42,26.95,14.27,49.09,1025.68,2037.98,1769.57,1866.38,2135.76,599.52,608.14,22.50,0000 0000 0000 0000 000000
2018-03-05 10:38:22,0.13,6.07,0.00,19.47,23.39,26.92,14.34,49.08,1025.51,2037.99,1768.44,1865.51,2134.71,599.90,608.49,22.55,0000 0000 0000 0000 000000
2018-03-05 10:43:23,0.12,6.08,0.00,19.44,23.36,26.80,14.33,49.09,1025.51,2037.99,1767.29,1864.68,2133.74,600.13,608.63,22.60,0000 0000 0000 0000 000000
2018-03-05 10:48:24,0.08,6.08,0.00,19.41,23.34,26.81,14.32,49.16,1025.48,2037.99,1766.28,1863.99,2132.93,600.09,608.69,22.65,0000 0000 0000 0000 000000
2018-03-05 10:53:25,0.13,6.09,0.00,19.38,23.31,26.79,14.30,49.12,1025.50,2038.00,1765.29,1863.17,2132.04,599.88,608.62,22.71,0000 0000 0000 0000 000000
2018-03-05 10:58:27,0.13,6.10,0.00,19.34,23.28,26.75,14.37,49.17,1025.68,2038.06,1764.26,1862.47,2131.13,600.33,609.17,22.76,0000 0000 0000 0000 000000
2018-03-05 11:03:28,0.14,6.10,0.00,19.31,23.25,26.73,14.24,49.24,1025.71,2038.24,1763.17,1861.72,2130.21,599.68,608.63,22.81,0000 0000 0000 0000 000000
2018-03-05 11:08:30,0.16,6.11,0.00,19.29,23.22,26.73,14.23,49.13,1025.69,2038.68,1762.09,1860.95,2129.35,599.74,608.65,22.86,0000 0000 0000 0000 000000
2018-03-05 11:13:31,0.15,6.12,0.00,19.25,23.19,26.69,14.27,49.08,1025.71,2038.94,1761.02,1860.08,2128.48,600.03,609.09,22.91,0000 0000 0000 0000 000000
2018-03-05 11:18:33,0.13,6.13,0.00,19.21,23.16,26.63,14.34,49.11,1025.62,2038.98,1759.93,1859.25,2127.42,599.66,608.76,22.96,0000 0000 0000 0000 000000
2018-03-05 11:23:34,0.16,6.13,0.00,19.18,23.13,26.60,14.33,49.10,1025.50,2038.99,1758.71,1858.39,2126.48,600.07,609.17,23.01,0000 0000 0000 0000 000000
2018-03-05 11:28:36,0.15,6.14,0.00,19.16,23.10,26.58,14.37,49.17,1025.46,2038.99,1757.38,1857.36,2125.28,600.32,609.43,23.06,0000 0000 0000 0000 000000
2018-03-05 11:33:37,0.14,6.15,0.00,19.13,23.07,26.53,14.35,49.13,1025.42,2039.01,1756.17,1856.36,2124.12,600.22,609.38,23.11,0000 0000 0000 0000 000000
2018-03-05 11:38:38,0.13,6.16,0.00,19.11,23.04,26.51,14.33,49.19,1025.45,2039.05,1755.04,1855.59,2123.15,599.86,609.02,23.16,0000 0000 0000 0000 000000
2018-03-05 11:43:39,0.16,6.16,0.00,19.08,23.01,26.51,14.37,49.10,1025.48,2039.45,1753.96,1854.93,2122.21,600.06,609.36,23.21,0000 0000 0000 0000 000000
2018-03-05 11:48:41,0.18,6.17,0.00,19.05,22.98,26.43,14.28,49.01,1025.51,2039.77,1752.87,1854.07,2121.20,600.01,609.43,23.26,0000 0000 0000 0000 000000
2018-03-05 11:53:42,0.14,6.18,0.00,19.03,22.95,26.42,14.37,49.14,1025.51,2039.93,1751.81,1853.20,2120.30,600.31,609.80,23.31,0000 0000 0000 0000 000000
2018-03-05 11:58:43,0.15,6.19,0.00,19.00,22.92,26.41,14.35,49.24,1025.65,2039.98,1750.63,1852.42,2119.38,600.05,609.62,23.36,0000 0000 0000 0000 000000
2018-03-05 12:03:45,0.13,6.19,0.00,18.96,22.89,26.40,14.31,49.05,1025.63,2039.99,1749.35,1851.63,2118.39,600.28,609.93,23.41,0000 0000 0000 0000 000000
2018-03-05 12:08:46,0.08,6.20,0.00,18.93,22.86,26.31,14.30,49.02,1025.50,2039.99,1748.31,1851.00,2117.72,599.83,609.45,23.46,0000 0000 0000 0000 000000
2018-03-05 12:13:47,0.11,6.20,0.00,18.92,22.83,26.35,14.33,49.13,1025.71,2040.01,1747.43,1850.27,2116.94,600.13,609.84,23.51,0000 0000 0000 0000 000000
2018-03-05 12:18:48,0.11,6.21,0.00,18.89,22.81,26.29,14.37,49.23,1025.87,2040.01,1746.52,1849.69,2116.08,600.22,610.25,23.56,0000 0000 0000 0000 000000
2018-03-05 12:23:50,0.09,6.22,0.00,18.87,22.78,26.24,14.33,49.14,1025.88,2040.06,1745.70,1849.01,2115.31,599.96,609.98,23.61,0000 0000 0000 0000 000000
2018-03-05 12:28:51,0.14,6.22,0.00,18.84,22.75,26.21,14.31,49.20,1025.87,2040.24,1744.77,1848.31,2114.59,599.94,609.99,23.66,0000 0000 0000 0000 000000
2018-03-05 12:33:52,0.16,6.23,0.00,18.82,22.73,26.22,14.38,49.20,1025.80,2040.75,1743.85,1847.74,2113.81,600.40,610.43,23.71,0000 0000 0000 0000 000000
2018-03-05 12:38:54,0.13,6.24,0.00,18.80,22.70,26.19,14.28,49.15,1025.72,2040.96,1742.78,1846.98,2112.96,600.05,610.01,23.76,0000 0000 0000 0000 000000
2018-03-05 12:43:55,0.12,6.24,0.00,18.77,22.67,26.20,14.27,49.19,1025.86,2040.99,1741.85,1846.14,2112.10,599.54,609.69,23.81,0000 0000 0000 0000 000000
2018-03-05 12:48:56,0.10,6.25,0.00,18.74,22.64,26.16,14.36,49.27,1025.71,2040.99,1740.98,1845.65,2111.34,600.00,610.02,23.86,0000 0000 0000 0000 000000
2018-03-05 12:53:58,0.10,6.25,0.00,18.71,22.62,26.13,14.35,49.17,1025.70,2040.99,1739.89,1844.91,2110.80,599.88,610.11,23.91,0000 0000 0000 0000 000000